30-04-2022, 00:00:06,     92,    0.0,    1.4,   0.00,   0.00, 1026.7,   83.2, -999.0
30-04-2022, 00:00:16,     93,    0.0,    1.4,   0.00,   0.00, 1026.8,   83.2, -999.0
30-04-2022, 00:00:26,     92,    0.0,    1.4,   0.00,   0.00, 1026.8,   83.3, -999.0
30-04-2022, 00:00:36,     92,    0.0,    1.5,   0.00,   0.00, 1026.7,   83.3, -999.0
30-04-2022, 00:00:46,     92,    0.0,    1.4,   0.00,   0.00, 1026.7,   83.3, -999.0
30-04-2022, 00:00:56,     92,    0.0,    1.5,   0.00,   0.00, 1026.7,   83.3, -999.0
30-04-2022, 00:01:06,     92,    0.0,    1.4,   0.00,   0.00, 1026.7,   83.3, -999.0
30-04-2022, 00:01:15,     92,    0.0,    1.4,   0.00,   0.00, 1026.7,   83.4, -999.0
30-04-2022, 00:01:25,     92,    0.0,    1.4,   0.00,   0.00, 1026.7,   83.3, -999.0
30-04-2022, 00:01:36,     92,    0.0,    1.4,   0.00,   0.00, 1026.7,   83.4, -999.0
30-04-2022, 00:01:45,     92,    0.0,    1.4,   0.00,   0.00, 1026.7,   83.3, -999.0
30-04-2022, 00:01:55,     92,    0.0,    1.4,   0.00,   0.00, 1026.7,   83.3, -999.0
30-04-2022, 00:02:06,     92,    0.0,    1.3,   0.00,   0.00, 1026.7,   83.3, -999.0
30-04-2022, 00:02:15,     92,    0.0,    1.4,   0.00,   0.00, 1026.7,   83.3, -999.0
30-04-2022, 00:02:25,     92,    0.0,    1.4,   0.00,   0.00, 1026.7,   83.3, -999.0
30-04-2022, 00:02:37,     92,    0.0,    1.4,   0.00,   0.00, 1026.8,   83.3, -999.0
30-04-2022, 00:02:45,     92,    0.0,    1.4,   0.00,   0.00, 1026.8,   83.4, -999.0
30-04-2022, 00:02:55,     92,    0.0,    1.4,   0.00,   0.00, 1026.8,   83.3, -999.0
30-04-2022, 00:03:05,     92,    0.0,    1.4,   0.00,   0.00, 1026.8,   83.3, -999.0
30-04-2022, 00:03:15,     92,    0.0,    1.4,   0.00,   0.00, 1026.8,   83.4, -999.0
30-04-2022, 00:03:25,     92,    0.0,    1.4,   0.00,   0.00, 1026.8,   83.4, -999.0
30-04-2022, 00:03:35,     92,    0.0,    1.4,   0.00,   0.00, 1026.8,   83.3, -999.0
30-04-2022, 00:03:45,     92,    0.0,    1.4,   0.00,   0.00, 1026.8,   83.5, -999.0
30-04-2022, 00:03:55,     92,    0.0,    1.3,   0.00,   0.00, 1026.7,   83.4, -999.0
30-04-2022, 00:04:05,     92,    0.0,    1.4,   0.00,   0.00, 1026.8,   83.3, -999.0
30-04-2022, 00:04:15,     92,    0.0,    1.3,   0.00,   0.00, 1026.8,   83.5, -999.0
30-04-2022, 00:04:25,     92,    0.0,    1.2,   0.00,   0.00, 1026.8,   83.4, -999.0
30-04-2022, 00:04:34,     92,    0.0,    1.3,   0.00,   0.00, 1026.8,   83.4, -999.0
30-04-2022, 00:04:45,     92,    0.0,    1.3,   0.00,   0.00, 1026.7,   83.5, -999.0
30-04-2022, 00:04:55,     92,    0.0,    1.3,   0.00,   0.00, 1026.8,   83.4, -999.0
30-04-2022, 00:05:04,     92,    0.0,    1.2,   0.00,   0.00, 1026.7,   83.4, -999.0
30-04-2022, 00:05:14,     92,    0.0,    1.3,   0.00,   0.00, 1026.8,   83.4, -999.0
30-04-2022, 00:05:25,     92,    0.0,    1.2,   0.00,   0.00, 1026.8,   83.3, -999.0
30-04-2022, 00:05:34,     92,    0.0,    1.3,   0.00,   0.00, 1026.7,   83.3, -999.0
30-04-2022, 00:05:44,     92,    0.0,    1.3,   0.00,   0.00, 1026.7,   83.4, -999.0
30-04-2022, 00:05:54,     92,    0.0,    1.3,   0.00,   0.00, 1026.8,   83.6, -999.0
30-04-2022, 00:06:04,     93,    0.0,    1.2,   0.00,   0.00, 1026.8,   83.5, -999.0
30-04-2022, 00:06:14,     92,    0.0,    1.2,   0.00,   0.00, 1026.8,   83.7, -999.0
30-04-2022, 00:06:24,     92,    0.0,    1.3,   0.00,   0.00, 1026.8,   83.7, -999.0
30-04-2022, 00:06:34,     92,    0.0,    1.3,   0.00,   0.00, 1026.8,   83.7, -999.0
30-04-2022, 00:06:44,     92,    0.0,    1.2,   0.00,   0.00, 1026.8,   83.5, -999.0
30-04-2022, 00:06:54,     92,    0.0,    1.3,   0.00,   0.00, 1026.8,   83.7, -999.0
30-04-2022, 00:07:04,     92,    0.0,    1.3,   0.00,   0.00, 1026.8,   83.7, -999.0
30-04-2022, 00:07:14,     92,    0.0,    1.2,   0.00,   0.00, 1026.7,   83.8, -999.0
30-04-2022, 00:07:24,     92,    0.0,    1.3,   0.00,   0.00, 1026.8,   83.7, -999.0
30-04-2022, 00:07:34,     92,    0.0,    1.3,   0.00,   0.00, 1026.7,   83.7, -999.0
30-04-2022, 00:07:44,     92,    0.0,    1.3,   0.00,   0.00, 1026.8,   83.8, -999.0
30-04-2022, 00:07:54,     92,    0.0,    1.3,   0.00,   0.00, 1026.8,   83.9, -999.0
30-04-2022, 00:08:04,     92,    0.0,    1.4,   0.00,   0.00, 1026.8,   83.9, -999.0
30-04-2022, 00:08:14,     92,    0.0,    1.2,   0.00,   0.00, 1026.7,   83.7, -999.0
30-04-2022, 00:08:23,     92,    0.0,    1.1,   0.00,   0.00, 1026.8,   83.9, -999.0
30-04-2022, 00:08:34,     92,    0.0,    1.2,   0.00,   0.00, 1026.8,   83.9, -999.0
30-04-2022, 00:08:43,     92,    0.0,    1.3,   0.00,   0.00, 1026.8,   83.9, -999.0
30-04-2022, 00:08:53,     92,    0.0,    1.3,   0.00,   0.00, 1026.7,   84.0, -999.0
30-04-2022, 00:09:04,     93,    0.0,    1.2,   0.00,   0.00, 1026.7,   84.0, -999.0
30-04-2022, 00:09:13,     92,    0.0,    1.3,   0.00,   0.00, 1026.8,   83.9, -999.0
30-04-2022, 00:09:23,     93,    0.0,    1.2,   0.00,   0.00, 1026.8,   84.0, -999.0
30-04-2022, 00:09:33,     92,    0.0,    1.2,   0.00,   0.00, 1026.8,   83.9, -999.0
30-04-2022, 00:09:43,     92,    0.0,    1.2,   0.00,   0.00, 1026.8,   83.9, -999.0
30-04-2022, 00:09:53,     92,    0.0,    1.2,   0.00,   0.00, 1026.8,   84.0, -999.0
30-04-2022, 00:10:03,     92,    0.0,    1.2,   0.00,   0.00, 1026.8,   84.0, -999.0
30-04-2022, 00:10:13,     92,    0.0,    1.2,   0.00,   0.00, 1026.7,   84.1, -999.0
30-04-2022, 00:10:23,     92,    0.0,    1.2,   0.00,   0.00, 1026.7,   84.1, -999.0
30-04-2022, 00:10:33,     92,    0.0,    1.2,   0.00,   0.00, 1026.8,   84.1, -999.0
30-04-2022, 00:10:43,     92,    0.0,    1.2,   0.00,   0.00, 1026.8,   84.1, -999.0
30-04-2022, 00:10:53,     92,    0.0,    1.3,   0.00,   0.00, 1026.7,   84.1, -999.0
30-04-2022, 00:11:03,     92,    0.0,    1.3,   0.00,   0.00, 1026.8,   84.3, -999.0
30-04-2022, 00:11:13,     92,    0.0,    1.3,   0.00,   0.00, 1026.7,   84.3, -999.0
30-04-2022, 00:11:23,     92,    0.0,    1.2,   0.00,   0.00, 1026.8,   84.4, -999.0
30-04-2022, 00:11:33,     92,    0.0,    1.2,   0.00,   0.00, 1026.8,   84.4, -999.0
30-04-2022, 00:11:43,     92,    0.0,    1.3,   0.00,   0.00, 1026.7,   84.3, -999.0
30-04-2022, 00:11:53,     92,    0.0,    1.3,   0.00,   0.00, 1026.7,   84.3, -999.0
30-04-2022, 00:12:02,     92,    0.0,    1.3,   0.00,   0.00, 1026.8,   84.3, -999.0
30-04-2022, 00:12:13,     92,    0.0,    1.3,   0.00,   0.00, 1026.8,   84.4, -999.0
30-04-2022, 00:12:23,     92,    0.0,    1.3,   0.00,   0.00, 1026.8,   84.3, -999.0
30-04-2022, 00:12:32,     93,    0.0,    1.4,   0.00,   0.00, 1026.8,   84.5, -999.0
30-04-2022, 00:12:42,     92,    0.0,    1.4,   0.00,   0.00, 1026.7,   84.7, -999.0
30-04-2022, 00:12:52,     92,    0.0,    1.4,   0.00,   0.00, 1026.7,   84.6, -999.0
30-04-2022, 00:13:02,     92,    0.0,    1.3,   0.00,   0.00, 1026.7,   84.5, -999.0
30-04-2022, 00:13:12,     92,    0.0,    1.4,   0.00,   0.00, 1026.8,   84.4, -999.0
30-04-2022, 00:13:22,     92,    0.0,    1.3,   0.00,   0.00, 1026.7,   84.4, -999.0
30-04-2022, 00:13:32,     92,    0.0,    1.4,   0.00,   0.00, 1026.8,   84.3, -999.0
30-04-2022, 00:13:42,     92,    0.0,    1.2,   0.00,   0.00, 1026.7,   84.3, -999.0
30-04-2022, 00:13:52,     92,    0.0,    1.3,   0.00,   0.00, 1026.7,   84.4, -999.0
30-04-2022, 00:14:02,     92,    0.0,    1.2,   0.00,   0.00, 1026.7,   84.4, -999.0
30-04-2022, 00:14:12,     92,    0.0,    1.4,   0.00,   0.00, 1026.7,   84.6, -999.0
30-04-2022, 00:14:22,     92,    0.0,    1.4,   0.00,   0.00, 1026.7,   84.8, -999.0
30-04-2022, 00:14:32,     92,    0.0,    1.5,   0.00,   0.00, 1026.7,   84.9, -999.0
30-04-2022, 00:14:42,     92,    0.0,    1.5,   0.00,   0.00, 1026.7,   85.0, -999.0
30-04-2022, 00:14:52,     92,    0.0,    1.5,   0.00,   0.00, 1026.7,   85.0, -999.0
30-04-2022, 00:15:02,     92,    0.0,    1.5,   0.00,   0.00, 1026.7,   85.0, -999.0
30-04-2022, 00:15:11,     92,    0.0,    1.5,   0.00,   0.00, 1026.7,   84.9, -999.0
30-04-2022, 00:15:22,     92,    0.0,    1.5,   0.00,   0.00, 1026.7,   84.9, -999.0
30-04-2022, 00:15:32,     92,    0.0,    1.5,   0.00,   0.00, 1026.7,   84.8, -999.0
30-04-2022, 00:15:41,     92,    0.0,    1.5,   0.00,   0.00, 1026.7,   84.7, -999.0
30-04-2022, 00:15:52,     92,    0.0,    1.5,   0.00,   0.00, 1026.7,   84.8, -999.0
30-04-2022, 00:16:02,     92,    0.0,    1.4,   0.00,   0.00, 1026.7,   84.8, -999.0
30-04-2022, 00:16:11,     92,    0.0,    1.5,   0.00,   0.00, 1026.7,   84.7, -999.0
30-04-2022, 00:16:21,     92,    0.0,    1.5,   0.00,   0.00, 1026.7,   84.7, -999.0
30-04-2022, 00:16:32,     92,    0.0,    1.5,   0.00,   0.00, 1026.7,   84.7, -999.0
30-04-2022, 00:16:41,     92,    0.0,    1.5,   0.00,   0.00, 1026.7,   84.9, -999.0
30-04-2022, 00:16:51,     92,    0.0,    1.5,   0.00,   0.00, 1026.7,   84.9, -999.0
30-04-2022, 00:17:01,     92,    0.0,    1.5,   0.00,   0.00, 1026.7,   84.9, -999.0
30-04-2022, 00:17:11,     92,    0.0,    1.5,   0.00,   0.00, 1026.7,   84.8, -999.0
30-04-2022, 00:17:21,     92,    0.0,    1.5,   0.00,   0.00, 1026.7,   84.7, -999.0
30-04-2022, 00:17:31,     93,    0.0,    1.5,   0.00,   0.00, 1026.7,   84.9, -999.0
30-04-2022, 00:17:41,     92,    0.0,    1.6,   0.00,   0.00, 1026.7,   85.0, -999.0
30-04-2022, 00:17:51,     93,    0.0,    1.5,   0.00,   0.00, 1026.7,   85.1, -999.0
30-04-2022, 00:18:01,     92,    0.0,    1.6,   0.00,   0.00, 1026.7,   85.0, -999.0
30-04-2022, 00:18:11,     92,    0.0,    1.6,   0.00,   0.00, 1026.7,   84.9, -999.0
30-04-2022, 00:18:21,     92,    0.0,    1.6,   0.00,   0.00, 1026.7,   84.9, -999.0
30-04-2022, 00:18:31,     92,    0.0,    1.5,   0.00,   0.00, 1026.7,   84.7, -999.0
30-04-2022, 00:18:41,     92,    0.0,    1.5,   0.00,   0.00, 1026.7,   84.8, -999.0
30-04-2022, 00:18:51,     93,    0.0,    1.5,   0.00,   0.00, 1026.7,   84.7, -999.0
30-04-2022, 00:19:01,     92,    0.0,    1.5,   0.00,   0.00, 1026.7,   84.8, -999.0
30-04-2022, 00:19:11,     92,    0.0,    1.5,   0.00,   0.00, 1026.7,   84.8, -999.0
30-04-2022, 00:19:21,     92,    0.0,    1.5,   0.00,   0.00, 1026.7,   84.8, -999.0
30-04-2022, 00:19:30,     92,    0.0,    1.6,   0.00,   0.00, 1026.7,   84.8, -999.0
30-04-2022, 00:19:41,     92,    0.0,    1.5,   0.00,   0.00, 1026.7,   84.8, -999.0
30-04-2022, 00:19:50,     93,    0.0,    1.6,   0.00,   0.00, 1026.7,   84.7, -999.0
30-04-2022, 00:20:00,     92,    0.0,    1.6,   0.00,   0.00, 1026.7,   84.9, -999.0
30-04-2022, 00:20:10,     92,    0.0,    1.6,   0.00,   0.00, 1026.7,   84.8, -999.0
30-04-2022, 00:20:20,     92,    0.0,    1.6,   0.00,   0.00, 1026.7,   84.9, -999.0
30-04-2022, 00:20:30,     92,    0.0,    1.6,   0.00,   0.00, 1026.7,   84.8, -999.0
30-04-2022, 00:20:40,     92,    0.0,    1.6,   0.00,   0.00, 1026.7,   84.9, -999.0
30-04-2022, 00:20:50,     92,    0.0,    1.6,   0.00,   0.00, 1026.7,   84.9, -999.0
30-04-2022, 00:21:00,     92,    0.0,    1.7,   0.00,   0.00, 1026.7,   84.9, -999.0
30-04-2022, 00:21:10,     92,    0.0,    1.6,   0.00,   0.00, 1026.7,   84.7, -999.0
30-04-2022, 00:21:20,     92,    0.0,    1.5,   0.00,   0.00, 1026.7,   84.6, -999.0
30-04-2022, 00:21:30,     92,    0.0,    1.5,   0.00,   0.00, 1026.7,   84.6, -999.0
30-04-2022, 00:21:40,     92,    0.0,    1.6,   0.00,   0.00, 1026.7,   84.6, -999.0
30-04-2022, 00:21:50,     92,    0.0,    1.5,   0.00,   0.00, 1026.7,   84.4, -999.0
30-04-2022, 00:22:00,     92,    0.0,    1.4,   0.00,   0.00, 1026.7,   84.6, -999.0
30-04-2022, 00:22:10,     92,    0.0,    1.4,   0.00,   0.00, 1026.6,   84.5, -999.0
30-04-2022, 00:22:20,     92,    0.0,    1.5,   0.00,   0.00, 1026.7,   84.5, -999.0
30-04-2022, 00:22:30,     93,    0.0,    1.5,   0.00,   0.00, 1026.7,   84.3, -999.0
30-04-2022, 00:22:39,     92,    0.0,    1.4,   0.00,   0.00, 1026.7,   84.5, -999.0
30-04-2022, 00:22:50,     92,    0.0,    1.4,   0.00,   0.00, 1026.7,   84.4, -999.0
30-04-2022, 00:23:00,     92,    0.0,    1.4,   0.00,   0.00, 1026.7,   84.3, -999.0
30-04-2022, 00:23:09,     92,    0.0,    1.3,   0.00,   0.00, 1026.7,   84.4, -999.0
30-04-2022, 00:23:19,     92,    0.0,    1.3,   0.00,   0.00, 1026.7,   84.3, -999.0
30-04-2022, 00:23:30,     92,    0.0,    1.3,   0.00,   0.00, 1026.7,   84.4, -999.0
30-04-2022, 00:23:39,     92,    0.0,    1.3,   0.00,   0.00, 1026.6,   84.3, -999.0
30-04-2022, 00:23:49,     92,    0.0,    1.3,   0.00,   0.00, 1026.7,   84.4, -999.0
30-04-2022, 00:23:59,     90,    0.0,    1.4,   0.00,   0.00, 1026.6,   84.4, -999.0
30-04-2022, 00:24:09,     92,    0.0,    1.4,   0.00,   0.00, 1026.6,   84.5, -999.0
30-04-2022, 00:24:19,     93,    0.0,    1.3,   0.00,   0.00, 1026.6,   84.4, -999.0
30-04-2022, 00:24:29,     92,    0.0,    1.2,   0.00,   0.00, 1026.6,   84.3, -999.0
30-04-2022, 00:24:39,     92,    0.0,    1.4,   0.00,   0.00, 1026.7,   84.5, -999.0
30-04-2022, 00:24:49,     93,    0.0,    1.4,   0.00,   0.00, 1026.6,   84.5, -999.0
30-04-2022, 00:24:59,     93,    0.0,    1.4,   0.00,   0.00, 1026.6,   84.5, -999.0
30-04-2022, 00:25:09,     92,    0.0,    1.3,   0.00,   0.00, 1026.6,   84.5, -999.0
30-04-2022, 00:25:19,     92,    0.0,    1.3,   0.00,   0.00, 1026.6,   84.6, -999.0
30-04-2022, 00:25:29,     93,    0.0,    1.3,   0.00,   0.00, 1026.6,   84.5, -999.0
30-04-2022, 00:25:39,     92,    0.0,    1.4,   0.00,   0.00, 1026.7,   84.5, -999.0
30-04-2022, 00:25:49,     95,    0.0,    1.3,   0.00,   0.00, 1026.6,   84.5, -999.0
30-04-2022, 00:25:59,     92,    0.0,    1.3,   0.00,   0.00, 1026.7,   84.5, -999.0
30-04-2022, 00:26:09,     92,    0.0,    1.4,   0.00,   0.00, 1026.7,   84.6, -999.0
30-04-2022, 00:26:18,     92,    0.0,    1.4,   0.00,   0.00, 1026.7,   84.9, -999.0
30-04-2022, 00:26:29,     92,    0.0,    1.6,   0.00,   0.00, 1026.7,   84.8, -999.0
30-04-2022, 00:26:39,     92,    0.0,    1.4,   0.00,   0.00, 1026.6,   85.0, -999.0
30-04-2022, 00:26:48,     92,    0.0,    1.4,   0.00,   0.00, 1026.7,   84.8, -999.0
30-04-2022, 00:26:58,     92,    0.0,    1.4,   0.00,   0.00, 1026.7,   84.9, -999.0
30-04-2022, 00:27:09,     92,    0.0,    1.4,   0.00,   0.00, 1026.7,   84.8, -999.0
30-04-2022, 00:27:18,     92,    0.0,    1.4,   0.00,   0.00, 1026.7,   85.0, -999.0
30-04-2022, 00:27:28,     92,    0.0,    1.5,   0.00,   0.00, 1026.7,   85.1, -999.0
30-04-2022, 00:27:38,     92,    0.0,    1.5,   0.00,   0.00, 1026.7,   85.1, -999.0
30-04-2022, 00:27:48,     92,    0.0,    1.4,   0.00,   0.00, 1026.7,   85.1, -999.0
30-04-2022, 00:27:58,     92,    0.0,    1.4,   0.00,   0.00, 1026.7,   85.0, -999.0
30-04-2022, 00:28:08,     92,    0.0,    1.4,   0.00,   0.00, 1026.7,   84.9, -999.0
30-04-2022, 00:28:18,     92,    0.0,    1.4,   0.00,   0.00, 1026.7,   84.9, -999.0
30-04-2022, 00:28:28,     93,    0.0,    1.5,   0.00,   0.00, 1026.7,   84.9, -999.0
30-04-2022, 00:28:38,     92,    0.0,    1.5,   0.00,   0.00, 1026.7,   84.7, -999.0
30-04-2022, 00:28:48,     90,    0.0,    1.5,   0.00,   0.00, 1026.7,   84.9, -999.0
30-04-2022, 00:28:58,     92,    0.0,    1.6,   0.00,   0.00, 1026.7,   85.0, -999.0
30-04-2022, 00:29:08,     92,    0.0,    1.5,   0.00,   0.00, 1026.7,   85.2, -999.0
30-04-2022, 00:29:18,     92,    0.0,    1.5,   0.00,   0.00, 1026.7,   85.1, -999.0
30-04-2022, 00:29:28,     92,    0.0,    1.5,   0.00,   0.00, 1026.7,   85.1, -999.0
30-04-2022, 00:29:38,     92,    0.0,    1.5,   0.00,   0.00, 1026.7,   85.1, -999.0
30-04-2022, 00:29:48,     92,    0.0,    1.5,   0.00,   0.00, 1026.7,   85.1, -999.0
30-04-2022, 00:29:58,     92,    0.0,    1.5,   0.00,   0.00, 1026.7,   85.1, -999.0
30-04-2022, 00:30:07,     92,    0.0,    1.6,   0.00,   0.00, 1026.7,   85.2, -999.0
30-04-2022, 00:30:18,     92,    0.0,    1.6,   0.00,   0.00, 1026.7,   85.2, -999.0
30-04-2022, 00:30:27,     92,    0.0,    1.6,   0.00,   0.00, 1026.7,   85.2, -999.0
30-04-2022, 00:30:37,     92,    0.0,    1.5,   0.00,   0.00, 1026.7,   85.1, -999.0
30-04-2022, 00:30:48,     92,    0.0,    1.5,   0.00,   0.00, 1026.7,   85.1, -999.0
30-04-2022, 00:30:57,     92,    0.0,    1.6,   0.00,   0.00, 1026.7,   85.1, -999.0
30-04-2022, 00:31:07,     92,    0.0,    1.6,   0.00,   0.00, 1026.7,   85.0, -999.0
30-04-2022, 00:31:17,     93,    0.0,    1.6,   0.00,   0.00, 1026.7,   85.0, -999.0
30-04-2022, 00:31:27,     92,    0.0,    1.5,   0.00,   0.00, 1026.8,   85.2, -999.0
30-04-2022, 00:31:37,     92,    0.0,    1.6,   0.00,   0.00, 1026.7,   85.0, -999.0
30-04-2022, 00:31:47,     92,    0.0,    1.6,   0.00,   0.00, 1026.7,   85.0, -999.0
30-04-2022, 00:31:57,     92,    0.0,    1.5,   0.00,   0.00, 1026.7,   85.0, -999.0
30-04-2022, 00:32:07,     92,    0.0,    1.4,   0.00,   0.00, 1026.7,   85.0, -999.0
30-04-2022, 00:32:17,     92,    0.0,    1.5,   0.00,   0.00, 1026.7,   85.0, -999.0
30-04-2022, 00:32:27,     93,    0.0,    1.5,   0.00,   0.00, 1026.7,   85.1, -999.0
30-04-2022, 00:32:37,     92,    0.0,    1.4,   0.00,   0.00, 1026.7,   85.0, -999.0
30-04-2022, 00:32:47,     92,    0.0,    1.5,   0.00,   0.00, 1026.7,   85.2, -999.0
30-04-2022, 00:32:57,     92,    0.0,    1.6,   0.00,   0.00, 1026.7,   85.0, -999.0
30-04-2022, 00:33:07,     91,    0.0,    1.6,   0.00,   0.00, 1026.7,   85.1, -999.0
30-04-2022, 00:33:17,     92,    0.0,    1.6,   0.00,   0.00, 1026.7,   85.1, -999.0
30-04-2022, 00:33:27,     92,    0.0,    1.5,   0.00,   0.00, 1026.7,   85.1, -999.0
30-04-2022, 00:33:37,     92,    0.0,    1.6,   0.00,   0.00, 1026.7,   85.1, -999.0
30-04-2022, 00:33:46,     92,    0.0,    1.6,   0.00,   0.00, 1026.7,   85.1, -999.0
30-04-2022, 00:33:57,     92,    0.0,    1.6,   0.00,   0.00, 1026.7,   85.1, -999.0
30-04-2022, 00:34:07,     92,    0.0,    1.7,   0.00,   0.00, 1026.7,   85.2, -999.0
30-04-2022, 00:34:16,     92,    0.0,    1.7,   0.00,   0.00, 1026.7,   85.2, -999.0
30-04-2022, 00:34:26,     92,    0.0,    1.6,   0.00,   0.00, 1026.7,   85.2, -999.0
30-04-2022, 00:34:37,     93,    0.0,    1.7,   0.00,   0.00, 1026.7,   85.1, -999.0
30-04-2022, 00:34:46,     92,    0.0,    1.7,   0.00,   0.00, 1026.7,   85.1, -999.0
30-04-2022, 00:34:56,     93,    0.0,    1.7,   0.00,   0.00, 1026.7,   85.0, -999.0
30-04-2022, 00:35:06,     92,    0.0,    1.7,   0.00,   0.00, 1026.7,   84.9, -999.0
30-04-2022, 00:35:16,     94,    0.0,    1.7,   0.00,   0.00, 1026.8,   84.9, -999.0
30-04-2022, 00:35:26,     92,    0.0,    1.7,   0.00,   0.00, 1026.7,   84.9, -999.0
30-04-2022, 00:35:36,     92,    0.0,    1.7,   0.00,   0.00, 1026.7,   84.9, -999.0
30-04-2022, 00:35:46,     92,    0.0,    1.7,   0.00,   0.00, 1026.7,   84.9, -999.0
30-04-2022, 00:35:56,     92,    0.0,    1.7,   0.00,   0.00, 1026.7,   84.8, -999.0
30-04-2022, 00:36:06,     92,    0.0,    1.7,   0.00,   0.00, 1026.7,   84.8, -999.0
30-04-2022, 00:36:16,     92,    0.0,    1.7,   0.00,   0.00, 1026.7,   84.7, -999.0
30-04-2022, 00:36:26,     92,    0.0,    1.6,   0.00,   0.00, 1026.7,   84.7, -999.0
30-04-2022, 00:36:36,     92,    0.0,    1.7,   0.00,   0.00, 1026.7,   84.7, -999.0
30-04-2022, 00:36:46,     92,    0.0,    1.6,   0.00,   0.00, 1026.7,   84.8, -999.0
30-04-2022, 00:36:55,     92,    0.0,    1.6,   0.00,   0.00, 1026.7,   84.8, -999.0
30-04-2022, 00:37:06,     92,    0.0,    1.6,   0.00,   0.00, 1026.7,   84.6, -999.0
30-04-2022, 00:37:16,     92,    0.0,    1.6,   0.00,   0.00, 1026.7,   84.6, -999.0
30-04-2022, 00:37:25,     92,    0.0,    1.7,   0.00,   0.00, 1026.7,   84.7, -999.0
30-04-2022, 00:37:35,     92,    0.0,    1.5,   0.00,   0.00, 1026.7,   84.7, -999.0
30-04-2022, 00:37:46,     92,    0.0,    1.6,   0.00,   0.00, 1026.7,   84.6, -999.0
30-04-2022, 00:37:55,     94,    0.0,    1.6,   0.00,   0.00, 1026.7,   84.6, -999.0
30-04-2022, 00:38:05,     92,    0.0,    1.7,   0.00,   0.00, 1026.7,   84.6, -999.0
30-04-2022, 00:38:16,     92,    0.0,    1.7,   0.00,   0.00, 1026.7,   84.7, -999.0
30-04-2022, 00:38:25,     92,    0.0,    1.7,   0.00,   0.00, 1026.7,   84.7, -999.0
30-04-2022, 00:38:35,     92,    0.0,    1.7,   0.00,   0.00, 1026.7,   84.8, -999.0
30-04-2022, 00:38:45,     92,    0.0,    1.6,   0.00,   0.00, 1026.7,   84.8, -999.0
30-04-2022, 00:38:55,     92,    0.0,    1.7,   0.00,   0.00, 1026.7,   84.8, -999.0
30-04-2022, 00:39:05,     92,    0.0,    1.7,   0.00,   0.00, 1026.6,   84.7, -999.0
30-04-2022, 00:39:15,     92,    0.0,    1.8,   0.00,   0.00, 1026.7,   84.7, -999.0
30-04-2022, 00:39:25,     92,    0.0,    1.7,   0.00,   0.00, 1026.7,   84.7, -999.0
30-04-2022, 00:39:35,     92,    0.0,    1.7,   0.00,   0.00, 1026.7,   84.7, -999.0
30-04-2022, 00:39:45,     92,    0.0,    1.7,   0.00,   0.00, 1026.7,   84.6, -999.0
30-04-2022, 00:39:55,     93,    0.0,    1.6,   0.00,   0.00, 1026.6,   84.6, -999.0
30-04-2022, 00:40:05,     92,    0.0,    1.7,   0.00,   0.00, 1026.6,   84.5, -999.0
30-04-2022, 00:40:15,     92,    0.0,    1.7,   0.00,   0.00, 1026.7,   84.6, -999.0
30-04-2022, 00:40:25,     92,    0.0,    1.6,   0.00,   0.00, 1026.6,   84.5, -999.0
30-04-2022, 00:40:35,     92,    0.0,    1.7,   0.00,   0.00, 1026.7,   84.4, -999.0
30-04-2022, 00:40:45,     93,    0.0,    1.6,   0.00,   0.00, 1026.6,   84.4, -999.0
30-04-2022, 00:40:55,     92,    0.0,    1.7,   0.00,   0.00, 1026.6,   84.4, -999.0
30-04-2022, 00:41:04,     92,    0.0,    1.7,   0.00,   0.00, 1026.6,   84.3, -999.0
30-04-2022, 00:41:14,     92,    0.0,    1.6,   0.00,   0.00, 1026.7,   84.3, -999.0
30-04-2022, 00:41:25,     92,    0.0,    1.7,   0.00,   0.00, 1026.6,   84.3, -999.0
30-04-2022, 00:41:34,     92,    0.0,    1.6,   0.00,   0.00, 1026.6,   84.4, -999.0
30-04-2022, 00:41:44,     92,    0.0,    1.6,   0.00,   0.00, 1026.6,   84.4, -999.0
30-04-2022, 00:41:54,     93,    0.0,    1.6,   0.00,   0.00, 1026.7,   84.4, -999.0
30-04-2022, 00:42:04,     92,    0.0,    1.5,   0.00,   0.00, 1026.6,   84.3, -999.0
30-04-2022, 00:42:14,     92,    0.0,    1.6,   0.00,   0.00, 1026.6,   84.3, -999.0
30-04-2022, 00:42:24,     92,    0.0,    1.6,   0.00,   0.00, 1026.7,   84.4, -999.0
30-04-2022, 00:42:34,     92,    0.0,    1.5,   0.00,   0.00, 1026.7,   84.3, -999.0
30-04-2022, 00:42:44,     92,    0.0,    1.5,   0.00,   0.00, 1026.7,   84.3, -999.0
30-04-2022, 00:42:54,     92,    0.0,    1.6,   0.00,   0.00, 1026.6,   84.3, -999.0
30-04-2022, 00:43:04,     92,    0.0,    1.5,   0.00,   0.00, 1026.7,   84.4, -999.0
30-04-2022, 00:43:14,     92,    0.0,    1.6,   0.00,   0.00, 1026.6,   84.4, -999.0
30-04-2022, 00:43:24,     93,    0.0,    1.6,   0.00,   0.00, 1026.7,   84.5, -999.0
30-04-2022, 00:43:34,     92,    0.0,    1.6,   0.00,   0.00, 1026.7,   84.5, -999.0
30-04-2022, 00:43:44,     92,    0.0,    1.6,   0.00,   0.00, 1026.6,   84.5, -999.0
30-04-2022, 00:43:54,     92,    0.0,    1.6,   0.00,   0.00, 1026.6,   84.5, -999.0
30-04-2022, 00:44:04,     92,    0.0,    1.5,   0.00,   0.00, 1026.6,   84.4, -999.0
30-04-2022, 00:44:14,     92,    0.0,    1.5,   0.00,   0.00, 1026.6,   84.3, -999.0
30-04-2022, 00:44:23,     92,    0.0,    1.5,   0.00,   0.00, 1026.6,   84.4, -999.0
30-04-2022, 00:44:34,     93,    0.0,    1.5,   0.00,   0.00, 1026.6,   84.4, -999.0
30-04-2022, 00:44:44,     92,    0.0,    1.5,   0.00,   0.00, 1026.6,   84.4, -999.0
30-04-2022, 00:44:53,     92,    0.0,    1.5,   0.00,   0.00, 1026.6,   84.5, -999.0
30-04-2022, 00:45:03,     92,    0.0,    1.4,   0.00,   0.00, 1026.6,   84.5, -999.0
30-04-2022, 00:45:14,     92,    0.0,    1.5,   0.00,   0.00, 1026.6,   84.5, -999.0
30-04-2022, 00:45:23,     92,    0.0,    1.5,   0.00,   0.00, 1026.6,   84.5, -999.0
30-04-2022, 00:45:33,     92,    0.0,    1.5,   0.00,   0.00, 1026.6,   84.5, -999.0
30-04-2022, 00:45:43,     92,    0.0,    1.5,   0.00,   0.00, 1026.7,   84.4, -999.0
30-04-2022, 00:45:53,     92,    0.0,    1.5,   0.00,   0.00, 1026.6,   84.5, -999.0
30-04-2022, 00:46:03,     92,    0.0,    1.5,   0.00,   0.00, 1026.6,   84.5, -999.0
30-04-2022, 00:46:13,     92,    0.0,    1.5,   0.00,   0.00, 1026.6,   84.5, -999.0
30-04-2022, 00:46:23,     92,    0.0,    1.5,   0.00,   0.00, 1026.6,   84.4, -999.0
30-04-2022, 00:46:33,     93,    0.0,    1.5,   0.00,   0.00, 1026.6,   84.5, -999.0
30-04-2022, 00:46:43,     92,    0.0,    1.5,   0.00,   0.00, 1026.6,   84.5, -999.0